TimeCDT,TemperatureF,Dew PointF,Humidity,Sea Level PressureIn,VisibilityMPH,Wind Direction,Wind SpeedMPH,Gust SpeedMPH,PrecipitationIn,Events,Conditions,WindDirDegrees,DateUTC
12:15 AM,73.4,68.0,83,29.71,10.0,South,20.7,25.3,N/A,,Overcast,170,2013-04-18 05:15:00
12:35 AM,73.4,68.0,83,29.71,10.0,South,17.3,24.2,N/A,,Overcast,180,2013-04-18 05:35:00
12:55 AM,73.4,68.0,83,29.71,10.0,South,17.3,25.3,N/A,,Overcast,170,2013-04-18 05:55:00
1:15 AM,73.4,66.2,78,29.70,10.0,South,15.0,29.9,N/A,,Overcast,170,2013-04-18 06:15:00
1:35 AM,73.4,66.2,78,29.69,10.0,South,17.3,29.9,N/A,,Overcast,170,2013-04-18 06:35:00
1:55 AM,73.4,66.2,78,29.69,10.0,South,20.7,28.8,N/A,,Overcast,170,2013-04-18 06:55:00
2:15 AM,73.4,66.2,78,29.68,10.0,South,18.4,28.8,N/A,,Overcast,170,2013-04-18 07:15:00
2:35 AM,73.4,64.4,73,29.68,10.0,South,26.5,33.4,N/A,,Overcast,170,2013-04-18 07:35:00
2:55 AM,71.6,64.4,78,29.68,10.0,South,15.0,29.9,N/A,,Overcast,180,2013-04-18 07:55:00
3:15 AM,71.6,64.4,78,29.67,10.0,South,17.3,29.9,N/A,,Overcast,180,2013-04-18 08:15:00
3:35 AM,71.6,64.4,78,29.66,10.0,South,17.3,24.2,N/A,,Overcast,170,2013-04-18 08:35:00
3:55 AM,71.6,64.4,78,29.65,10.0,South,16.1,25.3,N/A,,Overcast,170,2013-04-18 08:55:00
4:15 AM,71.6,64.4,78,29.64,10.0,South,17.3,26.5,N/A,,Overcast,170,2013-04-18 09:15:00
4:35 AM,71.6,64.4,78,29.64,10.0,South,19.6,27.6,N/A,,Overcast,170,2013-04-18 09:35:00
4:55 AM,71.6,64.4,78,29.64,10.0,South,21.9,29.9,N/A,,Overcast,170,2013-04-18 09:55:00
5:15 AM,71.6,64.4,78,29.63,10.0,South,19.6,31.1,N/A,,Overcast,170,2013-04-18 10:15:00
5:35 AM,71.6,64.4,78,29.62,10.0,South,19.6,28.8,N/A,,Overcast,170,2013-04-18 10:35:00
5:55 AM,71.6,64.4,78,29.64,10.0,South,19.6,27.6,N/A,,Overcast,170,2013-04-18 10:55:00
6:15 AM,71.6,64.4,78,29.64,10.0,South,19.6,33.4,N/A,,Overcast,170,2013-04-18 11:15:00
6:35 AM,71.6,64.4,78,29.65,10.0,South,15.0,25.3,N/A,,Overcast,180,2013-04-18 11:35:00
6:55 AM,71.6,64.4,78,29.71,10.0,WSW,8.1,19.6,N/A,,Overcast,240,2013-04-18 11:55:00
7:15 AM,69.8,64.4,83,29.71,4.0,SSW,4.6,-,N/A,Rain,Rain,200,2013-04-18 12:15:00
7:35 AM,62.6,62.6,100,29.74,2.5,North,11.5,17.3,0.14,Rain,Rain,350,2013-04-18 12:35:00
7:55 AM,62.6,60.8,94,29.74,3.0,North,11.5,19.6,0.25,Rain-Thunderstorm,Rain,350,2013-04-18 12:55:00
8:15 AM,59.0,59.0,100,29.79,0.8,WNW,13.8,23.0,0.36,Rain-Thunderstorm,Heavy Thunderstorms and Rain,300,2013-04-18 13:15:00
8:35 AM,55.4,53.6,94,29.80,5.0,NW,11.5,21.9,0.44,Rain-Thunderstorm,Rain,310,2013-04-18 13:35:00
8:55 AM,53.6,51.8,94,29.82,4.0,NW,8.1,18.4,0.57,Rain-Thunderstorm,Heavy Thunderstorms and Rain,320,2013-04-18 13:55:00
9:15 AM,51.8,50.0,94,29.84,4.0,NNW,8.1,17.3,0.09,Rain-Thunderstorm,Heavy Thunderstorms and Rain,330,2013-04-18 14:15:00
9:35 AM,50.0,50.0,100,29.83,5.0,NNW,5.8,17.3,0.17,Rain,Rain,340,2013-04-18 14:35:00
9:55 AM,50.0,48.2,94,29.87,10.0,NNW,6.9,17.3,0.17,Rain,Light Rain,330,2013-04-18 14:55:00
10:15 AM,50.0,46.4,87,29.86,10.0,NW,6.9,-,N/A,Rain,Light Rain,320,2013-04-18 15:15:00
10:35 AM,48.2,46.4,93,29.87,10.0,NW,9.2,19.6,0.01,,Light Drizzle,320,2013-04-18 15:35:00
10:55 AM,48.2,46.4,93,29.87,10.0,NW,12.7,20.7,0.01,Rain,Light Rain,320,2013-04-18 15:55:00
11:15 AM,46.4,46.4,100,29.88,10.0,NW,11.5,21.9,N/A,Rain,Light Rain,320,2013-04-18 16:15:00
11:35 AM,46.4,44.6,93,29.88,10.0,NNW,10.4,20.7,N/A,Rain,Light Rain,330,2013-04-18 16:35:00
11:55 AM,46.4,44.6,93,29.91,10.0,NNW,10.4,19.6,N/A,Rain-Thunderstorm,Light Thunderstorms and Rain,330,2013-04-18 16:55:00
12:15 PM,46.4,44.6,93,29.90,10.0,NNW,8.1,-,N/A,Rain-Thunderstorm,Light Thunderstorms and Rain,340,2013-04-18 17:15:00
12:35 PM,46.4,44.6,93,29.99,10.0,West,9.2,19.6,0.01,Rain-Thunderstorm,Light Thunderstorms and Rain,270,2013-04-18 17:35:00
12:55 PM,44.6,44.6,100,29.88,1.5,NNW,6.9,17.3,0.11,Rain-Thunderstorm,Light Thunderstorms and Rain,340,2013-04-18 17:55:00
1:15 PM,46.4,44.6,93,29.91,10.0,NW,9.2,19.6,0.01,,Overcast,320,2013-04-18 18:15:00
1:35 PM,46.4,44.6,93,29.91,10.0,NW,11.5,18.4,0.01,,Overcast,320,2013-04-18 18:35:00
1:55 PM,48.2,44.6,87,29.90,10.0,NNW,10.4,21.9,0.01,,Overcast,330,2013-04-18 18:55:00
2:15 PM,48.2,44.6,87,29.91,10.0,NNW,11.5,18.4,N/A,,Overcast,340,2013-04-18 19:15:00
2:35 PM,48.2,42.8,82,29.91,10.0,NNW,13.8,25.3,N/A,,Overcast,330,2013-04-18 19:35:00
2:55 PM,46.4,41.0,81,29.93,10.0,NNW,5.8,20.7,N/A,,Overcast,330,2013-04-18 19:55:00
3:35 PM,48.2,41.0,76,29.93,10.0,NNW,11.5,23.0,N/A,,Overcast,340,2013-04-18 20:35:00
3:55 PM,48.2,41.0,76,29.92,10.0,NNW,12.7,18.4,N/A,,Overcast,330,2013-04-18 20:55:00
4:15 PM,50.0,39.2,66,29.92,10.0,NNW,11.5,20.7,N/A,,Overcast,330,2013-04-18 21:15:00
4:35 PM,50.0,39.2,66,29.92,10.0,NW,13.8,21.9,N/A,,Overcast,320,2013-04-18 21:35:00
4:55 PM,50.0,39.2,66,29.92,10.0,NNW,11.5,19.6,N/A,,Overcast,340,2013-04-18 21:55:00
5:15 PM,51.8,39.2,62,29.92,10.0,NNW,15.0,23.0,N/A,,Overcast,330,2013-04-18 22:15:00
5:35 PM,53.6,41.0,62,29.92,10.0,NW,10.4,18.4,N/A,,Mostly Cloudy,320,2013-04-18 22:35:00
5:55 PM,53.6,39.2,58,29.94,10.0,NW,10.4,-,N/A,,Scattered Clouds,320,2013-04-18 22:55:00
6:15 PM,53.6,39.2,58,29.94,10.0,NNW,9.2,18.4,N/A,,Clear,330,2013-04-18 23:15:00
6:35 PM,53.6,39.2,58,29.94,10.0,NNW,11.5,17.3,N/A,,Clear,340,2013-04-18 23:35:00
6:55 PM,53.6,37.4,54,29.94,10.0,NNW,13.8,21.9,N/A,,Clear,340,2013-04-18 23:55:00
7:15 PM,51.8,37.4,58,29.96,10.0,NNW,11.5,23.0,N/A,,Clear,330,2013-04-19 00:15:00
7:35 PM,51.8,37.4,58,29.97,10.0,NNW,8.1,20.7,N/A,,Clear,340,2013-04-19 00:35:00
7:55 PM,51.8,37.4,58,29.98,10.0,NNW,10.4,-,N/A,,Clear,340,2013-04-19 00:55:00
8:15 PM,51.8,37.4,58,29.99,10.0,NNW,10.4,18.4,N/A,,Scattered Clouds,340,2013-04-19 01:15:00
8:35 PM,51.8,35.6,54,30.01,10.0,NNW,11.5,17.3,N/A,,Scattered Clouds,330,2013-04-19 01:35:00
9:55 PM,50.0,33.8,54,30.08,10.0,NNW,9.2,20.7,N/A,,Clear,340,2013-04-19 02:55:00
10:35 PM,48.2,33.8,58,30.11,10.0,NNW,9.2,16.1,N/A,,Clear,340,2013-04-19 03:35:00
10:55 PM,46.4,33.8,62,30.12,10.0,NNW,6.9,16.1,N/A,,Clear,340,2013-04-19 03:55:00
11:15 PM,46.4,33.8,62,30.12,10.0,NNW,9.2,16.1,N/A,,Clear,340,2013-04-19 04:15:00
11:35 PM,46.4,32.0,57,30.12,10.0,NNW,8.1,-,N/A,,Clear,340,2013-04-19 04:35:00
11:55 PM,46.4,32.0,57,30.13,10.0,NNW,11.5,16.1,N/A,,Clear,340,2013-04-19 04:55:00